Location: Unspecified
(0.0000°N, 0.0000°E)
Time: 19:51:16
(UTC+00:00)

CZ-3B DEB - Visible Passes

Search period start: 14 January 2025 00:00
Search period end: 24 January 2025 00:00
Orbit: 1806 x 44800 km, 21.1° (Epoch: 11 January)

Date Brightness Start Highest point End Pass type
(mag) Time Alt. Az. Time Alt. Az. Time Alt. Az.
14 Jan ? 04:23:03 22° NNW 04:25:06 24° N 04:33:25 10° NE visible
15 Jan ? 08:51:14 10° WNW 15:53:53 67° S 22:20:22 78° ESE visible
16 Jan ? 13:31:26 10° W 15:06:29 52° WSW 21:05:05 10° WSW visible
17 Jan ? 03:04:41 20° NNE 03:04:41 20° NNE 03:07:34 10° NE visible
18 Jan ? 07:28:24 10° NW 16:44:54 66° S 21:01:57 45° E visible
19 Jan ? 12:03:05 10° WNW 13:25:19 70° SW 01:18:31 19° W visible
21 Jan ? 06:05:36 10° NW 18:27:17 66° SSE 19:43:32 18° E visible
22 Jan ? 10:37:36 10° WNW 11:20:42 83° SSW 00:00:08 45° W visible
23 Jan ? 15:50:16 10° W 17:00:18 19° WSW 19:06:38 10° WSW visible
